Content
SEND FEEDBACK

Daily
Averages
Monthly
Summary
France

LE HAVRE, FRANCE


Home > Europe > France
Elevation: 338 feet     Latitude: 49 31N     Longitude: 000 04E

WEATHER
 
SELECT A DAY
Number of Records: 176,174;   Date Range: 3/4/97 - 7/30/14
 
SHARE

PRINT THIS DATA

[ ← Previous Day ]
WEATHER ALMANAC - OCTOBER 29, 2013
[ Next Day → ]
[ °C ]   °F
Weather ElementAverageHighLow
Temperature51.8 °F55.4 °F (1:00 pm)50 °F (3:00 am)
Dewpoint43 °F44.6 °F (12:30 am)37.4 °F (6:00 pm)
Humidity72.5 %82 % (3:00 am)54 % (6:00 pm)
Barometer29.94 in30.12 in (11:30 pm)29.77 in (12:30 am)
Wind Speed17.7 mph25.3 mph (2:30 am)
Wind Gust38 mph (2:30 am)
Weather ElementAverage
Visibility6.2 mi
Wind DirectionWSW (244.3 °)

Weather ElementTotal
Precipitation---
Heating Degree Days12.3 (Base 65)
Growing Degree Days2.7 (Base 50)
Averaged from 47 records on October 29, 2013
WEATHER CONDITIONS BREAKOUT
WIND DIRECTION BREAKOUT
WEATHER BY HOUR - OCTOBER 29, 2013
[ °C ]   °F
Local TimeTemperatureDewpointHumidityBarometerVisibilityWind DirectionWind SpeedGust SpeedPrecipitationEventsConditions
12:30 AM51.8 °F44.6 °F76 %29.77 in6.2 miSW (220°)20.7 mphScattered Clouds
1:00 AM51.8 °F42.8 °F71 %29.77 in6.2 miSSW (210°)23.0 mphScattered Clouds
1:30 AM51.8 °F42.8 °F71 %29.77 in6.2 miSW (220°)20.7 mph34.5 mphMostly Cloudy
2:00 AM51.8 °F44.6 °F76 %29.77 in6.2 miSW (220°)21.9 mph34.5 mphMostly Cloudy
2:30 AM51.8 °F44.6 °F76 %29.80 in6.2 miSW (230°)25.3 mph38.0 mphMostly Cloudy
3:00 AM50.0 °F44.6 °F82 %29.80 in6.2 miSW (220°)20.7 mphMostly Cloudy
3:30 AM50.0 °F44.6 °F82 %29.80 in6.2 miSW (220°)18.4 mphMostly Cloudy
4:00 AM50.0 °F44.6 °F82 %29.80 in6.2 miSW (220°)17.3 mphLight Drizzle
4:30 AM50.0 °F44.6 °F82 %29.83 in6.2 miSW (220°)17.3 mphMostly Cloudy
5:00 AM50.0 °F44.6 °F82 %29.83 in6.2 miSW (220°)19.6 mphMostly Cloudy
5:30 AM50.0 °F44.6 °F82 %29.83 in6.2 miSW (220°)19.6 mphMostly Cloudy
6:00 AM50.0 °F44.6 °F82 %29.83 in6.2 miSW (230°)18.4 mphScattered Clouds
6:30 AM50.0 °F44.6 °F82 %29.83 in6.2 miSW (230°)21.9 mphMostly Cloudy
7:00 AM50.0 °F44.6 °F82 %29.86 in6.2 miSW (220°)19.6 mph
7:30 AM50.0 °F44.6 °F82 %29.86 in6.2 miSW (220°)15.0 mphPartly Cloudy
8:00 AM50.0 °F44.6 °F82 %29.89 in6.2 miSW (220°)17.3 mphMostly Cloudy
8:30 AM50.0 °F44.6 °F82 %29.89 in6.2 miSW (230°)19.6 mphMostly Cloudy
9:00 AM50.0 °F44.6 °F82 %29.89 in6.2 miSW (220°)16.1 mphMostly Cloudy
9:30 AM51.8 °F44.6 °F76 %29.92 in6.2 miSW (220°)17.3 mphMostly Cloudy
10:00 AM51.8 °F44.6 °F76 %29.92 in6.2 miSW (220°)16.1 mphPartly Cloudy
10:30 AM51.8 °F44.6 °F76 %29.95 in6.2 miSW (220°)17.3 mphMostly Cloudy
11:00 AM51.8 °F44.6 °F76 %29.95 in6.2 miSW (220°)17.3 mphPartly Cloudy
11:30 AM53.6 °F44.6 °F72 %29.95 in6.2 miSW (220°)16.1 mphPartly Cloudy
12:00 PM53.6 °F44.6 °F72 %29.95 in6.2 miSW (230°)18.4 mph
12:30 PM53.6 °F44.6 °F72 %29.98 in6.2 miSW (230°)19.6 mphPartly Cloudy
1:00 PM55.4 °F44.6 °F67 %29.95 in6.2 miWSW (240°)18.4 mphScattered Clouds
1:30 PM53.6 °F42.8 °F67 %29.98 in6.2 miWSW (240°)20.7 mphMostly Cloudy
2:00 PM53.6 °F42.8 °F67 %29.98 in6.2 miWest (260°)17.3 mphMostly Cloudy
2:30 PM53.6 °F42.8 °F67 %29.98 in6.2 miWest (270°)18.4 mphMostly Cloudy
3:00 PM51.8 °F41.0 °F67 %29.98 in6.2 miWest (270°)18.4 mphMostly Cloudy
3:30 PM50.0 °F42.8 °F76 %30.01 in6.2 miWest (260°)6.9 mphMostly Cloudy
4:00 PM53.6 °F41.0 °F62 %30.01 in6.2 miWest (280°)18.4 mphScattered Clouds
4:30 PM53.6 °F41.0 °F62 %30.01 in6.2 miWest (280°)17.3 mphScattered Clouds
5:00 PM53.6 °F39.2 °F58 %30.01 in6.2 miWest (280°)16.1 mphScattered Clouds
5:30 PM53.6 °F39.2 °F58 %30.01 in6.2 miWNW (290°)16.1 mphScattered Clouds
6:00 PM53.6 °F37.4 °F54 %30.04 in6.2 miWNW (290°)17.3 mphPartly Cloudy
6:30 PM53.6 °F39.2 °F58 %30.04 in6.2 miWest (280°)16.1 mphScattered Clouds
7:00 PM51.8 °F39.2 °F62 %30.04 in6.2 miWNW (300°)16.1 mphMostly Cloudy
7:30 PM50.0 °F41.0 °F71 %30.06 in6.2 miWSW (250°)16.1 mphMostly Cloudy
8:00 PM51.8 °F41.0 °F67 %30.06 in6.2 miWSW (240°)15.0 mphMostly Cloudy
8:30 PM50.0 °F41.0 °F71 %30.06 in6.2 miWest (260°)15.0 mphRainLight Rain
9:00 PM51.8 °F42.8 °F71 %30.09 in6.2 miWest (260°)16.1 mphOvercast
9:30 PM51.8 °F41.0 °F67 %30.09 in6.2 miWNW (300°)18.4 mph33.4 mphThunderstormMostly Cloudy
10:00 PM51.8 °F42.8 °F71 %30.09 in6.2 miWNW (290°)11.5 mphScattered Clouds
10:30 PM53.6 °F42.8 °F67 %30.09 in6.2 miWest (260°)17.3 mphMostly Cloudy
11:00 PM53.6 °F44.6 °F72 %30.09 in6.2 miWSW (250°)16.1 mphMostly Cloudy
11:30 PM50.0 °F41.0 °F71 %30.12 in6.2 miWest (280°)16.1 mphRain-ThunderstormLight Rain
Hourly data recorded from LFOH, located miles away from Le Havre, France







STORIES FROM OUR PARTNERS